• In Lithuania
  • List of Countries
  • For 7 days
  • Water Temperature
  • Satellite Maps
  • Weather Map
  • Weather Widgets
  • user-avatar
    Login

    Hourly Weather Severnyy

    Today, 19 October, Friday

    Time Temperature Precipitation Wind Pressure Humidity
    00:00 +13°C° 0 mm 3 mps 747 mmHg 92%
    01:00 +13°C° 0 mm 3 mps 747 mmHg 93%
    02:00 +12°C° 0 mm 3 mps 746 mmHg 94%
    03:00 +12°C° 0 mm 3 mps 746 mmHg 95%
    04:00 +12°C° 0 mm 3 mps 746 mmHg 95%
    05:00 +12°C° 0 mm 3 mps 746 mmHg 94%
    06:00 +13°C° 0 mm 3 mps 746 mmHg 94%
    07:00 +13°C° 0 mm 3 mps 746 mmHg 91%
    08:00 +14°C° 0 mm 4 mps 746 mmHg 88%
    09:00 +14°C° 0 mm 4 mps 746 mmHg 85%
    10:00 +15°C° 0 mm 4 mps 746 mmHg 80%
    11:00 +17°C° 0 mm 4 mps 746 mmHg 75%
    12:00 +18°C° 0 mm 4 mps 746 mmHg 70%
    13:00 +20°C° 0 mm 4 mps 746 mmHg 65%
    14:00 +21°C° 0 mm 4 mps 745 mmHg 60%
    15:00 +22°C° 0 mm 4 mps 745 mmHg 55%
    16:00 +21°C° 0 mm 4 mps 745 mmHg 61%
    17:00 +19°C° 0 mm 3 mps 745 mmHg 67%
    18:00 +18°C° 0 mm 3 mps 745 mmHg 73%
    19:00 +17°C° 0 mm 3 mps 745 mmHg 78%
    20:00 +17°C° 0 mm 3 mps 745 mmHg 83%
    21:00 +16°C° 0 mm 3 mps 745 mmHg 88%
    22:00 +14°C° 0 mm 3 mps 745 mmHg 90%
    23:00 +14°C° 0 mm 3 mps 745 mmHg 91%

    Tomorrow, 20 October, Saturday

    Time Temperature Precipitation Wind Pressure Humidity
    00:00 +14°C° 0 mm 3 mps 744 mmHg 93%
    01:00 +15°C° 0 mm 2 mps 744 mmHg 93%
    02:00 +15°C° 0 mm 2 mps 744 mmHg 92%
    03:00 +15°C° 0 mm 1 mps 744 mmHg 92%
    04:00 +15°C° 0 mm 1 mps 744 mmHg 91%
    05:00 +15°C° 0 mm 1 mps 744 mmHg 91%
    06:00 +14°C° 0 mm 0 mps 744 mmHg 91%
    07:00 +14°C° 0 mm 0 mps 744 mmHg 87%
    08:00 +15°C° 0 mm 0 mps 744 mmHg 84%
    09:00 +15°C° 0 mm 0 mps 744 mmHg 80%
    10:00 +17°C° 0 mm 0 mps 744 mmHg 73%
    11:00 +20°C° 0 mm 1 mps 744 mmHg 65%
    12:00 +22°C° 0 mm 1 mps 743 mmHg 58%
    13:00 +22°C° 0 mm 1 mps 743 mmHg 54%
    14:00 +23°C° 0 mm 1 mps 743 mmHg 50%
    15:00 +24°C° 0 mm 1 mps 743 mmHg 46%
    16:00 +22°C° 0 mm 1 mps 743 mmHg 52%
    17:00 +21°C° 0 mm 1 mps 743 mmHg 57%
    18:00 +19°C° 0 mm 1 mps 743 mmHg 62%
    19:00 +19°C° 0 mm 1 mps 743 mmHg 65%
    20:00 +18°C° 0 mm 1 mps 743 mmHg 68%
    21:00 +15°C° 0 mm 0 mps 743 mmHg 71%
    22:00 +15°C° 0 mm 0 mps 743 mmHg 72%
    23:00 +15°C° 0 mm 0 mps 743 mmHg 74%

    Day after tomorrow, 21 October, Sunday

    Time Temperature Precipitation Wind Pressure Humidity
    00:00 +14°C° 0 mm 0 mps 742 mmHg 75%
    01:00 +14°C° 0 mm 0 mps 742 mmHg 76%
    02:00 +14°C° 0 mm 0 mps 742 mmHg 77%
    03:00 +13°C° 0 mm 0 mps 742 mmHg 78%
    04:00 +13°C° 0 mm 0 mps 742 mmHg 79%
    05:00 +13°C° 0 mm 0 mps 742 mmHg 80%
    06:00 +13°C° 0 mm 0 mps 742 mmHg 80%
    07:00 +14°C° 0 mm 0 mps 742 mmHg 74%
    08:00 +16°C° 0 mm 0 mps 742 mmHg 67%
    09:00 +17°C° 0 mm 0 mps 742 mmHg 60%
    10:00 +21°C° 0 mm 1 mps 742 mmHg 55%
    11:00 +22°C° 0 mm 1 mps 742 mmHg 50%
    12:00 +23°C° 0 mm 2 mps 742 mmHg 45%
    13:00 +24°C° 0 mm 3 mps 741 mmHg 44%
    14:00 +24°C° 0 mm 3 mps 741 mmHg 43%
    15:00 +23°C° 0 mm 4 mps 741 mmHg 42%
    16:00 +22°C° 0 mm 3 mps 741 mmHg 47%
    17:00 +21°C° 0 mm 3 mps 741 mmHg 52%
    18:00 +19°C° 0 mm 2 mps 741 mmHg 58%
    19:00 +18°C° 0 mm 3 mps 741 mmHg 63%
    20:00 +18°C° 0 mm 3 mps 742 mmHg 68%
    21:00 +17°C° 0 mm 3 mps 742 mmHg 74%
    22:00 +16°C° 0 mm 3 mps 741 mmHg 79%
    23:00 +16°C° 0 mm 2 mps 741 mmHg 85%

    22 October, Monday

    Time Temperature Precipitation Wind Pressure Humidity
    00:00 +15°C° 0 mm 2 mps 741 mmHg 91%
    01:00 +15°C° 0 mm 2 mps 741 mmHg 93%
    02:00 +15°C° 0 mm 2 mps 741 mmHg 95%
    03:00 +14°C° 0 mm 2 mps 741 mmHg 97%
    04:00 +14°C° 0 mm 2 mps 741 mmHg 96%
    05:00 +15°C° 0 mm 2 mps 741 mmHg 95%
    06:00 +15°C° 0 mm 2 mps 741 mmHg 94%
    07:00 +15°C° 0 mm 2 mps 741 mmHg 91%
    08:00 +16°C° 0 mm 2 mps 741 mmHg 89%
    09:00 +16°C° 0 mm 1 mps 742 mmHg 86%
    10:00 +18°C° 0 mm 1 mps 742 mmHg 82%
    11:00 +17°C° 0 mm 2 mps 742 mmHg 79%
    12:00 +18°C° 0 mm 2 mps 742 mmHg 75%
    13:00 +18°C° 0 mm 2 mps 742 mmHg 72%
    14:00 +19°C° 0 mm 2 mps 742 mmHg 70%
    15:00 +19°C° 0 mm 2 mps 742 mmHg 68%
    16:00 +18°C° 0 mm 2 mps 742 mmHg 72%
    17:00 +19°C° 0 mm 1 mps 742 mmHg 76%
    18:00 +18°C° 0 mm 1 mps 743 mmHg 79%
    19:00 +16°C° 0 mm 1 mps 743 mmHg 81%
    20:00 +16°C° 0 mm 1 mps 743 mmHg 82%
    21:00 +15°C° 0 mm 1 mps 743 mmHg 83%
    22:00 +15°C° 0 mm 1 mps 743 mmHg 85%
    23:00 +15°C° 0 mm 1 mps 743 mmHg 86%

    23 October, Tuesday

    Time Temperature Precipitation Wind Pressure Humidity
    00:00 +14°C° 0 mm 1 mps 743 mmHg 88%
    01:00 +14°C° 0 mm 1 mps 742 mmHg 89%
    02:00 +14°C° 0 mm 1 mps 742 mmHg 89%
    03:00 +14°C° 0 mm 1 mps 742 mmHg 90%
    04:00 +13°C° 0 mm 1 mps 742 mmHg 90%
    05:00 +13°C° 0 mm 1 mps 742 mmHg 90%
    06:00 +13°C° 0 mm 1 mps 742 mmHg 90%
    07:00 +14°C° 0 mm 1 mps 742 mmHg 84%
    08:00 +15°C° 0 mm 2 mps 742 mmHg 79%
    09:00 +17°C° 0 mm 2 mps 742 mmHg 73%
    10:00 +18°C° 0 mm 2 mps 742 mmHg 67%
    11:00 +20°C° 0 mm 3 mps 742 mmHg 62%
    12:00 +21°C° 0 mm 3 mps 741 mmHg 56%
    13:00 +21°C° 0 mm 3 mps 741 mmHg 54%
    14:00 +22°C° 0 mm 3 mps 741 mmHg 52%
    15:00 +22°C° 0 mm 4 mps 741 mmHg 50%
    16:00 +21°C° 0 mm 3 mps 741 mmHg 53%
    17:00 +20°C° 0 mm 3 mps 741 mmHg 55%
    18:00 +19°C° 0 mm 2 mps 741 mmHg 58%
    19:00 +18°C° 0 mm 2 mps 741 mmHg 59%
    20:00 +18°C° 0 mm 2 mps 741 mmHg 59%
    21:00 +17°C° 0 mm 2 mps 741 mmHg 60%
    22:00 +16°C° 0 mm 2 mps 741 mmHg 61%
    23:00 +16°C° 0 mm 2 mps 740 mmHg 63%

    24 October, Wednesday

    Time Temperature Precipitation Wind Pressure Humidity
    00:00 +15°C° 0 mm 1 mps 740 mmHg 64%
    01:00 +15°C° 0 mm 1 mps 740 mmHg 66%
    02:00 +15°C° 0 mm 1 mps 740 mmHg 68%
    03:00 +14°C° 0 mm 1 mps 739 mmHg 70%
    04:00 +14°C° 0 mm 1 mps 739 mmHg 72%
    05:00 +14°C° 0 mm 1 mps 739 mmHg 74%
    06:00 +13°C° 0 mm 1 mps 739 mmHg 75%
    07:00 +15°C° 0 mm 1 mps 738 mmHg 70%
    08:00 +16°C° 0 mm 1 mps 738 mmHg 65%
    09:00 +18°C° 0 mm 1 mps 738 mmHg 60%
    10:00 +19°C° 0 mm 2 mps 737 mmHg 55%
    11:00 +21°C° 0 mm 2 mps 737 mmHg 50%
    12:00 +22°C° 0 mm 3 mps 736 mmHg 46%
    13:00 +24°C° 0 mm 3 mps 735 mmHg 44%
    14:00 +24°C° 0 mm 3 mps 735 mmHg 43%
    15:00 +25°C° 0 mm 4 mps 734 mmHg 42%
    16:00 +22°C° 0 mm 3 mps 734 mmHg 46%
    17:00 +21°C° 0 mm 2 mps 734 mmHg 51%
    18:00 +20°C° 0 mm 1 mps 734 mmHg 55%
    19:00 +20°C° 0 mm 1 mps 734 mmHg 57%
    20:00 +19°C° 0 mm 1 mps 734 mmHg 59%
    21:00 +18°C° 0 mm 1 mps 734 mmHg 62%
    22:00 +18°C° 0 mm 1 mps 734 mmHg 63%
    23:00 +17°C° 0 mm 2 mps 734 mmHg 64%
    Show more